STARLINK-6079 (56120 NORAD) Tracking and Keplerian Element Data

This shows tracking and keplerian element data for the satellite.

Feedback or suggestion? Click here.




ElementValue
Catalog56120
NameSTARLINK-6079
Epoch Orbit656
Epoch Day127.25001157
Epoch Year2023
RAAN33.7163
Inclination43.0013
Eccentricity0.0001373
Argument of Perigee260.545
Mean Anonmoly348.7015
Mean Motion15.48879735
Decay Rate0.00072011
L11 56120U 23046AD 23127.25001157 .00072011 00000+0 12976-2 0 9992
L22 56120 43.0013 33.7163 0001373 260.5450 348.7015 15.48879735 6568



Live tracking and technical data element details for STARLINK-6079 (NORAD 56120). STARLINK-6079 can be tracked NOW for your location showing map with azimuth and elevation plus other details from your city location.







IsCatalogInMostPopularTable: catalog: 56120, numindb: 4
Update: records affected: 1



GetName: 56120 STARLINK-6079

Hit Count: updated at: Mon, 05 Jun 2023 00:22:55 GMT